Total_Precipitation_Accumulation
1.17 1.30 1.40 1.72 2.03 2.25 2.47 2.70 2.85 2.92 3.20 3.43 3.42 3.35 3.23 2.98 2.87 2.88 2.81 2.70 2.61 2.71 2.72 2.51 2.36 2.36 2.29 2.18 2.14 2.12 2.16 2.05 1.90 1.95 1.89 1.71 1.51 1.38 1.24 1.14 1.11 1.06 1.03
1.06 1.21 1.30 1.48 1.73 2.00 2.29 2.56 2.73 2.84 2.86 2.93 3.19 3.37 3.50 3.36 3.05 2.89 2.85 2.76 2.64 2.63 2.65 2.68 2.60 2.48 2.38 2.31 2.29 2.30 2.35 2.38 2.33 2.30 2.29 2.17 2.01 1.64 1.34 1.25 1.21 1.15 1.13
0.94 1.07 1.21 1.45 1.59 1.76 2.05 2.37 2.56 2.73 2.76 2.81 3.12 3.39 3.57 3.47 3.17 2.79 2.66 2.70 2.68 2.66 2.55 2.54 2.65 2.63 2.52 2.38 2.32 2.29 2.32 2.38 2.39 2.37 2.50 2.31 1.98 1.63 1.44 1.26 1.17 1.17 1.19
0.81 0.87 1.02 1.22 1.39 1.58 1.78 1.99 2.23 2.44 2.66 2.77 2.89 2.98 3.11 3.13 2.89 2.75 2.65 2.71 2.75 2.72 2.66 2.58 2.58 2.59 2.52 2.38 2.33 2.27 2.25 2.32 2.35 2.34 2.28 2.15 1.83 1.65 1.57 1.41 1.25 1.21 1.22
0.80 0.82 0.97 1.17 1.27 1.43 1.70 1.86 1.95 2.17 2.44 2.62 2.67 2.87 2.90 2.93 2.99 2.97 2.87 2.79 2.77 2.71 2.66 2.61 2.58 2.50 2.41 2.35 2.42 2.35 2.33 2.34 2.32 2.25 2.18 2.19 1.97 1.72 1.65 1.54 1.39 1.36 1.28
0.85 0.92 1.06 1.17 1.23 1.34 1.56 1.76 1.78 1.90 2.09 2.39 2.63 2.69 2.69 2.76 2.80 2.80 2.75 2.73 2.73 2.69 2.60 2.51 2.46 2.41 2.39 2.39 2.42 2.47 2.41 2.38 2.39 2.32 2.20 2.21 2.19 1.97 1.86 1.77 1.55 1.53 1.45
0.80 0.91 1.05 1.07 1.13 1.25 1.42 1.60 1.68 1.78 1.88 2.08 2.34 2.53 2.63 2.68 2.71 2.72 2.67 2.57 2.50 2.41 2.36 2.38 2.34 2.28 2.21 2.24 2.34 2.46 2.46 2.39 2.37 2.34 2.29 2.22 2.14 1.99 1.97 1.99 1.86 1.76 1.69
0.70 0.75 0.90 0.99 1.06 1.17 1.27 1.35 1.42 1.49 1.58 1.67 1.84 2.10 2.38 2.51 2.46 2.45 2.42 2.36 2.28 2.26 2.26 2.26 2.26 2.26 2.23 2.18 2.22 2.31 2.38 2.39 2.31 2.19 2.16 2.14 2.08 2.09 2.10 2.10 2.17 2.16 1.95
0.74 0.73 0.81 0.88 0.94 1.07 1.20 1.22 1.26 1.33 1.42 1.47 1.57 1.71 1.97 2.15 2.20 2.22 2.18 2.09 2.03 2.07 2.10 2.12 2.15 2.20 2.22 2.18 2.18 2.23 2.22 2.24 2.25 2.21 2.13 2.04 1.93 1.96 1.97 1.99 2.10 2.31 2.27
0.75 0.72 0.77 0.83 0.84 0.93 1.08 1.12 1.18 1.26 1.40 1.46 1.51 1.58 1.69 1.80 1.97 2.05 1.95 1.89 1.89 1.92 1.93 1.93 1.94 1.98 2.05 2.09 2.09 2.07 2.04 2.04 2.03 2.04 2.09 2.05 1.93 1.92 1.98 2.06 2.09 2.16 2.24
0.77 0.80 0.82 0.86 0.90 0.96 1.02 1.04 1.12 1.21 1.36 1.44 1.43 1.43 1.50 1.56 1.67 1.77 1.79 1.73 1.74 1.75 1.76 1.73 1.75 1.76 1.79 1.87 1.95 1.93 1.93 1.95 1.91 1.91 1.95 1.97 1.93 1.94 1.98 2.09 2.15 2.19 2.27
0.72 0.80 0.81 0.84 0.94 0.98 0.99 0.95 1.00 1.08 1.22 1.30 1.29 1.29 1.34 1.42 1.50 1.56 1.65 1.64 1.63 1.63 1.67 1.62 1.59 1.59 1.59 1.65 1.72 1.76 1.78 1.82 1.83 1.83 1.87 1.90 1.92 1.95 1.97 2.09 2.15 2.12 2.09
0.58 0.64 0.70 0.73 0.78 0.82 0.85 0.91 0.91 0.90 0.98 1.04 1.05 1.07 1.09 1.19 1.32 1.38 1.42 1.48 1.50 1.51 1.53 1.56 1.50 1.48 1.48 1.55 1.59 1.59 1.62 1.66 1.68 1.70 1.75 1.75 1.81 1.88 1.88 1.96 2.05 2.03 2.00
0.51 0.57 0.65 0.64 0.68 0.73 0.74 0.81 0.81 0.81 0.88 0.91 0.91 0.94 0.96 0.99 1.09 1.18 1.21 1.26 1.30 1.34 1.36 1.42 1.40 1.35 1.37 1.44 1.51 1.57 1.59 1.57 1.57 1.59 1.65 1.70 1.74 1.75 1.78 1.88 1.94 1.95 1.99
0.47 0.53 0.64 0.68 0.66 0.72 0.74 0.75 0.81 0.86 0.93 0.95 0.95 0.93 0.91 0.92 0.97 1.05 1.11 1.15 1.17 1.16 1.14 1.19 1.24 1.27 1.29 1.36 1.42 1.50 1.56 1.57 1.56 1.57 1.61 1.69 1.88 1.93 1.90 1.91 1.89 1.92 2.02
0.43 0.46 0.56 0.72 0.67 0.73 0.82 0.82 0.88 0.98 1.00 1.04 0.99 0.96 0.91 0.89 0.88 0.90 0.95 1.00 1.06 1.08 1.09 1.11 1.11 1.15 1.22 1.52 1.59 1.54 1.55 1.60 1.61 1.59 1.55 1.60 1.77 1.76 1.81 1.85 1.87 1.94 2.06
0.40 0.44 0.50 0.67 0.75 0.79 0.90 0.97 1.00 1.07 1.06 1.07 1.00 0.94 0.89 0.86 0.85 0.84 0.87 0.93 0.99 1.05 1.12 1.15 1.16 1.17 1.31 1.59 1.63 1.73 1.64 1.60 1.57 1.53 1.48 1.44 1.41 1.50 1.36 1.48 1.67 1.75 1.78
0.35 0.39 0.45 0.51 0.64 0.70 0.80 0.91 0.98 1.10 1.11 1.10 1.08 1.04 1.01 1.02 1.04 1.04 1.07 1.09 1.08 1.14 1.26 1.33 1.36 1.39 1.47 1.60 1.56 1.65 1.50 1.45 1.40 1.32 1.30 1.26 1.20 1.21 1.27 1.33 1.45 1.37 1.34
0.34 0.35 0.39 0.41 0.48 0.58 0.65 0.77 0.93 1.10 1.22 1.28 1.29 1.30 1.30 1.32 1.34 1.36 1.36 1.36 1.39 1.42 1.43 1.45 1.41 1.39 1.41 1.47 1.44 1.47 1.37 1.35 1.27 1.17 1.14 1.15 1.09 1.24 1.45 1.47 1.42 1.28 1.23
0.34 0.34 0.36 0.38 0.42 0.54 0.63 0.77 0.99 1.19 1.33 1.39 1.42 1.44 1.50 1.55 1.50 1.46 1.42 1.35 1.33 1.37 1.38 1.39 1.38 1.31 1.25 1.31 1.30 1.31 1.23 1.20 1.10 1.06 1.05 1.14 1.13 1.33 1.52 1.48 1.43 1.33 1.12
0.42 0.43 0.45 0.49 0.53 0.59 0.70 0.88 1.03 1.18 1.27 1.31 1.34 1.36 1.34 1.34 1.30 1.26 1.21 1.18 1.15 1.11 1.09 1.07 1.05 1.03 1.08 1.16 1.20 1.25 1.23 1.24 1.18 1.10 1.08 1.09 1.24 1.37 1.50 1.54 1.43 1.34 1.28
0.41 0.50 0.57 0.63 0.63 0.67 0.78 0.88 0.94 0.98 0.99 1.00 1.03 1.04 0.98 0.92 0.92 0.94 0.95 0.94 0.95 0.93 0.89 0.85 0.85 0.84 0.89 1.02 1.10 1.21 1.30 1.34 1.32 1.19 1.08 1.15 1.37 1.48 1.53 1.51 1.45 1.51 1.57
0.26 0.31 0.40 0.47 0.47 0.49 0.55 0.62 0.61 0.59 0.60 0.61 0.65 0.68 0.68 0.65 0.65 0.70 0.74 0.77 0.79 0.81 0.80 0.78 0.79 0.78 0.77 0.86 1.00 1.09 1.25 1.35 1.28 1.18 1.23 1.32 1.43 1.48 1.48 1.48 1.48 1.44 1.39
0.20 0.22 0.24 0.28 0.29 0.30 0.32 0.36 0.36 0.34 0.37 0.42 0.47 0.53 0.58 0.60 0.60 0.63 0.68 0.72 0.75 0.78 0.79 0.80 0.79 0.76 0.73 0.79 0.91 1.04 1.16 1.30 1.30 1.26 1.30 1.34 1.34 1.34 1.35 1.40 1.43 1.39 1.35
0.21 0.23 0.25 0.26 0.27 0.27 0.28 0.29 0.31 0.31 0.33 0.36 0.40 0.46 0.52 0.59 0.61 0.61 0.64 0.71 0.75 0.88 1.07 1.08 1.00 1.01 0.99 0.95 1.15 1.34 1.36 1.39 1.44 1.50 1.46 1.36 1.28 1.28 1.28 1.26 1.28 1.34 1.39
0.24 0.25 0.26 0.30 0.32 0.34 0.35 0.35 0.36 0.36 0.37 0.39 0.41 0.47 0.52 0.56 0.61 0.64 0.66 0.70 0.75 0.83 0.92 1.01 1.08 1.05 1.08 1.15 1.25 1.30 1.36 1.45 1.56 1.65 1.58 1.35 1.22 1.17 1.18 1.22 1.26 1.29 1.33